• In Belarus
  • List of Countries
  • For 7 days
  • Water Temperature
  • Satellite Maps
  • Weather Map
  • Weather Widgets
  • user-avatar
    Login

    Hourly Weather Tegucigalpa

    Today, 16 January, Wednesday

    Time Temperature Precipitation Wind Pressure Humidity
    00:00 +17°C° 0 mm 3 mps 675 mmHg 95%
    01:00 +17°C° 0 mm 3 mps 675 mmHg 95%
    02:00 +17°C° 0 mm 3 mps 675 mmHg 95%
    03:00 +16°C° 0 mm 3 mps 675 mmHg 95%
    04:00 +16°C° 0 mm 3 mps 675 mmHg 95%
    05:00 +16°C° 0 mm 3 mps 675 mmHg 95%
    06:00 +15°C° 0 mm 2 mps 675 mmHg 95%
    07:00 +17°C° 0 mm 3 mps 676 mmHg 85%
    08:00 +19°C° 0 mm 3 mps 676 mmHg 75%
    09:00 +21°C° 0 mm 4 mps 677 mmHg 65%
    10:00 +23°C° 0 mm 4 mps 677 mmHg 58%
    11:00 +26°C° 0 mm 4 mps 677 mmHg 51%
    12:00 +28°C° 0 mm 5 mps 677 mmHg 44%
    13:00 +28°C° 0 mm 5 mps 677 mmHg 44%
    14:00 +28°C° 0 mm 5 mps 676 mmHg 44%
    15:00 +28°C° 0 mm 5 mps 676 mmHg 44%
    16:00 +26°C° 0 mm 4 mps 675 mmHg 54%
    17:00 +23°C° 0 mm 4 mps 675 mmHg 63%
    18:00 +21°C° 0 mm 3 mps 675 mmHg 72%
    19:00 +20°C° 0 mm 3 mps 675 mmHg 78%
    20:00 +19°C° 0 mm 3 mps 675 mmHg 85%
    21:00 +18°C° 0 mm 3 mps 675 mmHg 91%
    22:00 +18°C° 0 mm 3 mps 675 mmHg 92%
    23:00 +17°C° 0 mm 3 mps 675 mmHg 93%

    Tomorrow, 17 January, Thursday

    Time Temperature Precipitation Wind Pressure Humidity
    00:00 +17°C° 0 mm 3 mps 675 mmHg 94%
    01:00 +17°C° 0 mm 3 mps 675 mmHg 94%
    02:00 +17°C° 0 mm 3 mps 675 mmHg 95%
    03:00 +17°C° 0 mm 3 mps 675 mmHg 95%
    04:00 +17°C° 0 mm 3 mps 675 mmHg 95%
    05:00 +17°C° 0 mm 3 mps 675 mmHg 96%
    06:00 +17°C° 0 mm 3 mps 675 mmHg 96%
    07:00 +18°C° 0 mm 3 mps 676 mmHg 87%
    08:00 +20°C° 0 mm 3 mps 676 mmHg 77%
    09:00 +22°C° 0 mm 4 mps 677 mmHg 68%
    10:00 +25°C° 0 mm 4 mps 677 mmHg 63%
    11:00 +26°C° 0 mm 5 mps 677 mmHg 58%
    12:00 +27°C° 0 mm 5 mps 677 mmHg 53%
    13:00 +27°C° 0 mm 5 mps 676 mmHg 54%
    14:00 +27°C° 0 mm 5 mps 675 mmHg 56%
    15:00 +27°C° 0 mm 4 mps 675 mmHg 58%
    16:00 +25°C° 0.2 mm 4 mps 675 mmHg 67%
    17:00 +22°C° 0.2 mm 3 mps 675 mmHg 77%
    18:00 +20°C° 0.2 mm 3 mps 674 mmHg 86%
    19:00 +20°C° 0.1 mm 3 mps 675 mmHg 89%
    20:00 +19°C° 0.1 mm 3 mps 675 mmHg 91%
    21:00 +19°C° 0.1 mm 3 mps 675 mmHg 94%
    22:00 +18°C° 0 mm 3 mps 675 mmHg 95%
    23:00 +18°C° 0 mm 3 mps 675 mmHg 96%

    Day after tomorrow, 18 January, Friday

    Time Temperature Precipitation Wind Pressure Humidity
    00:00 +18°C° 0 mm 3 mps 675 mmHg 96%
    01:00 +18°C° 0 mm 3 mps 675 mmHg 96%
    02:00 +18°C° 0 mm 3 mps 675 mmHg 95%
    03:00 +18°C° 0 mm 2 mps 674 mmHg 94%
    04:00 +18°C° 0 mm 2 mps 674 mmHg 95%
    05:00 +17°C° 0 mm 2 mps 674 mmHg 96%
    06:00 +17°C° 0 mm 2 mps 674 mmHg 97%
    07:00 +18°C° 0 mm 3 mps 675 mmHg 90%
    08:00 +20°C° 0 mm 3 mps 676 mmHg 83%
    09:00 +21°C° 0 mm 3 mps 677 mmHg 77%
    10:00 +22°C° 0 mm 3 mps 676 mmHg 71%
    11:00 +23°C° 0 mm 4 mps 676 mmHg 65%
    12:00 +26°C° 0 mm 4 mps 676 mmHg 59%
    13:00 +26°C° 0 mm 4 mps 675 mmHg 57%
    14:00 +27°C° 0 mm 4 mps 674 mmHg 55%
    15:00 +27°C° 0 mm 4 mps 674 mmHg 53%
    16:00 +25°C° 0 mm 3 mps 674 mmHg 60%
    17:00 +23°C° 0 mm 2 mps 674 mmHg 68%
    18:00 +21°C° 0 mm 2 mps 673 mmHg 76%
    19:00 +20°C° 0 mm 2 mps 674 mmHg 82%
    20:00 +19°C° 0 mm 2 mps 674 mmHg 88%
    21:00 +18°C° 0 mm 2 mps 674 mmHg 93%
    22:00 +18°C° 0 mm 2 mps 674 mmHg 94%
    23:00 +18°C° 0 mm 2 mps 674 mmHg 95%

    19 January, Saturday

    Time Temperature Precipitation Wind Pressure Humidity
    00:00 +17°C° 0 mm 2 mps 674 mmHg 96%
    01:00 +17°C° 0 mm 2 mps 673 mmHg 97%
    02:00 +17°C° 0 mm 2 mps 673 mmHg 97%
    03:00 +17°C° 0 mm 2 mps 673 mmHg 98%
    04:00 +17°C° 0 mm 2 mps 673 mmHg 97%
    05:00 +16°C° 0 mm 2 mps 673 mmHg 96%
    06:00 +16°C° 0 mm 2 mps 673 mmHg 95%
    07:00 +18°C° 0 mm 2 mps 674 mmHg 85%
    08:00 +20°C° 0 mm 2 mps 675 mmHg 75%
    09:00 +23°C° 0 mm 2 mps 676 mmHg 65%
    10:00 +25°C° 0 mm 2 mps 676 mmHg 57%
    11:00 +27°C° 0 mm 2 mps 675 mmHg 50%
    12:00 +29°C° 0 mm 2 mps 675 mmHg 43%
    13:00 +29°C° 0 mm 2 mps 674 mmHg 40%
    14:00 +30°C° 0 mm 2 mps 674 mmHg 37%
    15:00 +30°C° 0 mm 2 mps 673 mmHg 35%
    16:00 +27°C° 0 mm 2 mps 673 mmHg 44%
    17:00 +25°C° 0 mm 2 mps 672 mmHg 54%
    18:00 +21°C° 0 mm 2 mps 672 mmHg 63%
    19:00 +21°C° 0 mm 1 mps 673 mmHg 71%
    20:00 +20°C° 0 mm 1 mps 673 mmHg 78%
    21:00 +19°C° 0 mm 1 mps 674 mmHg 86%
    22:00 +18°C° 0 mm 1 mps 674 mmHg 87%
    23:00 +18°C° 0 mm 1 mps 674 mmHg 89%

    20 January, Sunday

    Time Temperature Precipitation Wind Pressure Humidity
    00:00 +18°C° 0 mm 1 mps 674 mmHg 91%
    01:00 +18°C° 0 mm 1 mps 673 mmHg 92%
    02:00 +16°C° 0 mm 2 mps 673 mmHg 93%
    03:00 +16°C° 0 mm 2 mps 673 mmHg 94%
    04:00 +16°C° 0 mm 2 mps 673 mmHg 94%
    05:00 +16°C° 0 mm 2 mps 674 mmHg 95%
    06:00 +16°C° 0 mm 2 mps 674 mmHg 95%
    07:00 +18°C° 0 mm 3 mps 675 mmHg 86%
    08:00 +20°C° 0 mm 4 mps 676 mmHg 78%
    09:00 +22°C° 0 mm 5 mps 677 mmHg 70%
    10:00 +23°C° 0 mm 6 mps 677 mmHg 65%
    11:00 +24°C° 0 mm 6 mps 676 mmHg 60%
    12:00 +26°C° 0 mm 6 mps 676 mmHg 56%
    13:00 +26°C° 0 mm 6 mps 676 mmHg 57%
    14:00 +26°C° 0 mm 6 mps 675 mmHg 58%
    15:00 +26°C° 0 mm 6 mps 674 mmHg 59%
    16:00 +23°C° 0 mm 6 mps 674 mmHg 67%
    17:00 +21°C° 0 mm 5 mps 674 mmHg 75%
    18:00 +20°C° 0 mm 4 mps 674 mmHg 83%
    19:00 +19°C° 0 mm 5 mps 675 mmHg 85%
    20:00 +19°C° 0 mm 5 mps 675 mmHg 86%
    21:00 +17°C° 0 mm 5 mps 676 mmHg 88%
    22:00 +17°C° 0 mm 5 mps 676 mmHg 88%
    23:00 +17°C° 0 mm 5 mps 676 mmHg 88%

    21 January, Monday

    Time Temperature Precipitation Wind Pressure Humidity
    00:00 +16°C° 0 mm 5 mps 675 mmHg 89%
    01:00 +16°C° 0 mm 5 mps 675 mmHg 88%
    02:00 +16°C° 0 mm 5 mps 675 mmHg 88%
    03:00 +16°C° 0 mm 5 mps 674 mmHg 88%
    04:00 +15°C° 0 mm 5 mps 675 mmHg 87%
    05:00 +15°C° 0 mm 5 mps 675 mmHg 87%
    06:00 +15°C° 0 mm 5 mps 675 mmHg 86%
    07:00 +16°C° 0 mm 5 mps 676 mmHg 81%
    08:00 +17°C° 0 mm 5 mps 676 mmHg 75%
    09:00 +19°C° 0 mm 5 mps 677 mmHg 70%
    10:00 +20°C° 0 mm 5 mps 677 mmHg 66%
    11:00 +21°C° 0 mm 5 mps 677 mmHg 62%
    12:00 +22°C° 0 mm 6 mps 676 mmHg 58%
    13:00 +22°C° 0 mm 5 mps 676 mmHg 58%
    14:00 +22°C° 0 mm 5 mps 675 mmHg 59%
    15:00 +22°C° 0 mm 4 mps 674 mmHg 59%
    16:00 +21°C° 0 mm 4 mps 674 mmHg 66%
    17:00 +19°C° 0 mm 4 mps 674 mmHg 73%
    18:00 +17°C° 0 mm 3 mps 674 mmHg 80%
    19:00 +17°C° 0 mm 3 mps 674 mmHg 84%
    20:00 +16°C° 0 mm 3 mps 675 mmHg 89%
    21:00 +14°C° 0 mm 3 mps 675 mmHg 93%
    22:00 +14°C° 0 mm 3 mps 675 mmHg 93%
    23:00 +14°C° 0 mm 3 mps 674 mmHg 94%
    Show more